| time (UTC) | temp F | wind direction | speed MPH | gust MPH | rain 1hr in | rain 24hr in | rain mn in | humidity % | barometer mb |
| 20260507003802 | 70 | 196 | 0.0 | 1.0 | 0.02 | 0.11 | 0.11 | 93 | 1012.1 |
| 20260507001803 | 70 | 196 | 0.0 | 0.0 | 0.02 | 0.09 | 0.09 | 93 | 1011.9 |
| 20260507001303 | 70 | 196 | 0.0 | 0.0 | 0.04 | 0.09 | 0.09 | 93 | 1011.7 |
| 20260507000802 | 70 | 196 | 0.0 | 0.0 | 0.08 | 0.09 | 0.09 | 92 | 1011.6 |
| 20260507000303 | 70 | 196 | 0.0 | 0.0 | 0.09 | 0.09 | 0.09 | 92 | 1011.6 |
| 20260506234803 | 71 | 197 | 0.0 | 0.0 | 0.09 | 0.09 | 0.09 | 92 | 1011.4 |
| 20260506234303 | 71 | 197 | 0.0 | 0.0 | 0.09 | 0.09 | 0.09 | 92 | 1011.3 |
| 20260506233802 | 71 | 197 | 0.0 | 0.0 | 0.09 | 0.09 | 0.09 | 91 | 1011.1 |
| 20260506233303 | 71 | 197 | 0.0 | 1.0 | 0.08 | 0.08 | 0.08 | 90 | 1010.9 |
| 20260506231803 | 73 | 198 | 0.0 | 1.0 | 0.07 | 0.07 | 0.07 | 87 | 1010.5 |
| 20260506231302 | 74 | 198 | 0.0 | 2.0 | 0.05 | 0.05 | 0.05 | 83 | 1011.1 |
| 20260506230803 | 76 | 244 | 0.0 | 1.0 | 0.01 | 0.01 | 0.01 | 79 | 1011.2 |
| 20260506230303 | 77 | 244 | 1.0 | 2.0 | 0.00 | 0.00 | 0.00 | 74 | 1011.0 |
| 20260506224802 | 79 | 216 | 1.0 | 2.0 | 0.00 | 0.00 | 0.00 | 69 | 1011.2 |
| 20260506224302 | 79 | 151 | 2.0 | 3.0 | 0.00 | 0.00 | 0.00 | 69 | 1011.3 |
| 20260506223803 | 79 | 208 | 2.0 | 3.0 | 0.00 | 0.00 | 0.00 | 69 | 1011.2 |
| 20260506221803 | 79 | 255 | 0.0 | 2.0 | 0.00 | 0.00 | 0.00 | 69 | 1011.1 |
| 20260506221302 | 79 | 271 | 1.0 | 3.0 | 0.00 | 0.00 | 0.00 | 68 | 1011.0 |
| 20260506220803 | 80 | 261 | 1.0 | 3.0 | 0.00 | 0.00 | 0.00 | 68 | 1011.0 |
| 20260506220303 | 80 | 193 | 2.0 | 3.0 | 0.00 | 0.00 | 0.00 | 67 | 1011.1 |
| 20260506214803 | 80 | 260 | 1.0 | 3.0 | 0.00 | 0.00 | 0.00 | 66 | 1011.0 |
| 20260506214303 | 80 | 289 | 2.0 | 3.0 | 0.00 | 0.00 | 0.00 | 65 | 1011.0 |
| 20260506213303 | 80 | 256 | 1.0 | 3.0 | 0.00 | 0.00 | 0.00 | 66 | 1011.0 |
| 20260506211803 | 80 | 192 | 1.0 | 3.0 | 0.00 | 0.00 | 0.00 | 65 | 1011.2 |
| 20260506210803 | 80 | 221 | 1.0 | 3.0 | 0.00 | 0.00 | 0.00 | 63 | 1011.3 |
| 20260506210303 | 80 | 196 | 2.0 | 3.0 | 0.00 | 0.00 | 0.00 | 63 | 1011.4 |
| 20260506204803 | 80 | 183 | 2.0 | 3.0 | 0.00 | 0.00 | 0.00 | 62 | 1011.6 |
| 20260506204303 | 80 | 215 | 2.0 | 5.0 | 0.00 | 0.00 | 0.00 | 61 | 1011.7 |
| 20260506203802 | 81 | 175 | 2.0 | 5.0 | 0.00 | 0.00 | 0.00 | 62 | 1011.9 |
| 20260506203303 | 81 | 237 | 2.0 | 7.0 | 0.00 | 0.00 | 0.00 | 60 | 1012.0 |
| 20260506201802 | 83 | 246 | 2.0 | 3.0 | 0.00 | 0.00 | 0.00 | 58 | 1012.0 |
| 20260506201303 | 84 | 195 | 2.0 | 3.0 | 0.00 | 0.00 | 0.00 | 59 | 1012.0 |
| 20260506200803 | 84 | 216 | 1.0 | 3.0 | 0.00 | 0.00 | 0.00 | 59 | 1012.0 |
| 20260506200303 | 83 | 244 | 1.0 | 3.0 | 0.00 | 0.00 | 0.00 | 59 | 1012.1 |
| 20260506194802 | 81 | 227 | 1.0 | 3.0 | 0.00 | 0.00 | 0.00 | 64 | 1012.6 |
| 20260506194303 | 82 | 249 | 2.0 | 3.0 | 0.00 | 0.00 | 0.00 | 63 | 1012.6 |
| 20260506193803 | 81 | 283 | 1.0 | 3.0 | 0.00 | 0.00 | 0.00 | 64 | 1012.7 |
| 20260506193302 | 81 | 263 | 2.0 | 3.0 | 0.00 | 0.00 | 0.00 | 63 | 1012.9 |
| 20260506191803 | 80 | 211 | 1.0 | 3.0 | 0.00 | 0.00 | 0.00 | 63 | 1013.1 |
| 20260506191303 | 79 | 223 | 1.0 | 2.0 | 0.00 | 0.00 | 0.00 | 65 | 1013.2 |
| 20260506190802 | 79 | 228 | 2.0 | 3.0 | 0.00 | 0.00 | 0.00 | 65 | 1013.3 |
| 20260506190303 | 79 | 212 | 1.0 | 7.0 | 0.00 | 0.00 | 0.00 | 64 | 1013.2 |
| 20260506184803 | 78 | 219 | 2.0 | 3.0 | 0.00 | 0.00 | 0.00 | 65 | 1013.4 |
| 20260506184302 | 78 | 220 | 1.0 | 3.0 | 0.00 | 0.00 | 0.00 | 65 | 1013.6 |
| 20260506183802 | 79 | 194 | 1.0 | 3.0 | 0.00 | 0.00 | 0.00 | 65 | 1013.7 |
| 20260506181803 | 78 | 253 | 1.0 | 3.0 | 0.00 | 0.00 | 0.00 | 65 | 1013.7 |
| 20260506181303 | 78 | 235 | 1.0 | 3.0 | 0.00 | 0.00 | 0.00 | 64 | 1013.6 |
| 20260506180803 | 77 | 241 | 1.0 | 3.0 | 0.00 | 0.00 | 0.00 | 64 | 1013.5 |
| 20260506180303 | 77 | 220 | 2.0 | 3.0 | 0.00 | 0.00 | 0.00 | 65 | 1013.5 |
| 20260506174803 | 77 | 255 | 1.0 | 3.0 | 0.00 | 0.00 | 0.00 | 65 | 1013.5 |
| 20260506174303 | 77 | 254 | 2.0 | 3.0 | 0.00 | 0.00 | 0.00 | 65 | 1013.4 |
| 20260506173803 | 77 | 270 | 1.0 | 3.0 | 0.00 | 0.00 | 0.00 | 65 | 1013.4 |
| 20260506171803 | 77 | 220 | 1.0 | 3.0 | 0.00 | 0.00 | 0.00 | 66 | 1014.0 |
| 20260506171303 | 77 | 238 | 1.0 | 3.0 | 0.00 | 0.00 | 0.00 | 68 | 1014.0 |
| 20260506170803 | 77 | 199 | 1.0 | 2.0 | 0.00 | 0.00 | 0.00 | 66 | 1014.1 |
| 20260506163303 | 75 | 243 | 1.0 | 5.0 | 0.00 | 0.00 | 0.00 | 69 | 1014.3 |
| 20260506161803 | 76 | 211 | 1.0 | 3.0 | 0.00 | 0.00 | 0.00 | 67 | 1014.6 |
| 20260506161303 | 75 | 195 | 1.0 | 3.0 | 0.00 | 0.00 | 0.00 | 68 | 1014.6 |
| 20260506160803 | 75 | 225 | 2.0 | 3.0 | 0.00 | 0.00 | 0.00 | 68 | 1014.8 |
| 20260506160303 | 75 | 164 | 1.0 | 3.0 | 0.00 | 0.00 | 0.00 | 68 | 1014.9 |
| 20260506154803 | 73 | 180 | 2.0 | 3.0 | 0.00 | 0.00 | 0.00 | 70 | 1015.2 |
| 20260506154303 | 73 | 192 | 1.0 | 3.0 | 0.00 | 0.00 | 0.00 | 71 | 1015.1 |
| 20260506151803 | 72 | 160 | 1.0 | 3.0 | 0.00 | 0.00 | 0.00 | 73 | 1015.1 |
| 20260506151303 | 72 | 193 | 2.0 | 3.0 | 0.00 | 0.00 | 0.00 | 73 | 1015.0 |
| 20260506150802 | 72 | 207 | 2.0 | 3.0 | 0.00 | 0.00 | 0.00 | 75 | 1015.1 |
| 20260506150304 | 71 | 179 | 3.0 | 8.0 | 0.00 | 0.00 | 0.00 | 73 | 1015.2 |
| 20260506144803 | 71 | 194 | 1.0 | 2.0 | 0.00 | 0.00 | 0.00 | 75 | 1015.1 |
| 20260506144303 | 71 | 177 | 2.0 | 3.0 | 0.00 | 0.00 | 0.00 | 74 | 1014.9 |
| 20260506143803 | 70 | 243 | 1.0 | 2.0 | 0.00 | 0.00 | 0.00 | 76 | 1014.8 |
| 20260506143303 | 70 | 219 | 1.0 | 3.0 | 0.00 | 0.00 | 0.00 | 76 | 1014.8 |
| 20260506141303 | 71 | 254 | 1.0 | 3.0 | 0.00 | 0.00 | 0.00 | 77 | 1014.4 |
| 20260506140303 | 70 | 192 | 2.0 | 3.0 | 0.00 | 0.00 | 0.00 | 76 | 1014.4 |
| 20260506134803 | 70 | 266 | 1.0 | 3.0 | 0.00 | 0.00 | 0.00 | 75 | 1013.9 |
| 20260506134303 | 70 | 161 | 2.0 | 3.0 | 0.00 | 0.00 | 0.00 | 77 | 1013.8 |
| 20260506133803 | 70 | 188 | 2.0 | 3.0 | 0.00 | 0.00 | 0.00 | 77 | 1013.9 |
| 20260506133303 | 70 | 239 | 1.0 | 3.0 | 0.00 | 0.00 | 0.00 | 79 | 1014.0 |
| 20260506131303 | 68 | 223 | 0.0 | 2.0 | 0.00 | 0.00 | 0.00 | 84 | 1014.1 |
| 20260506130803 | 68 | 219 | 1.0 | 2.0 | 0.00 | 0.00 | 0.00 | 85 | 1014.2 |
| 20260506130303 | 67 | 245 | 1.0 | 3.0 | 0.00 | 0.00 | 0.00 | 84 | 1014.0 |
| 20260506124303 | 66 | 213 | 0.0 | 1.0 | 0.00 | 0.00 | 0.00 | 85 | 1014.1 |
| 20260506123804 | 66 | 213 | 0.0 | 0.0 | 0.00 | 0.00 | 0.00 | 85 | 1014.2 |
| 20260506123306 | 66 | 213 | 0.0 | 1.0 | 0.00 | 0.00 | 0.00 | 85 | 1014.2 |
| 20260506121303 | 65 | 278 | 0.0 | 0.0 | 0.00 | 0.00 | 0.00 | 85 | 1014.3 |
| 20260506120804 | 65 | 278 | 0.0 | 0.0 | 0.00 | 0.00 | 0.00 | 85 | 1014.2 |
| 20260506114804 | 64 | 278 | 0.0 | 2.0 | 0.00 | 0.00 | 0.00 | 84 | 1013.9 |
| 20260506114304 | 64 | 216 | 0.0 | 0.0 | 0.00 | 0.00 | 0.00 | 84 | 1013.8 |
| 20260506113804 | 64 | 216 | 0.0 | 0.0 | 0.00 | 0.00 | 0.00 | 84 | 1013.8 |
| 20260506113304 | 63 | 216 | 0.0 | 1.0 | 0.00 | 0.00 | 0.00 | 83 | 1013.7 |
| 20260506111803 | 63 | 216 | 0.0 | 0.0 | 0.00 | 0.00 | 0.00 | 82 | 1013.9 |
| 20260506111304 | 63 | 216 | 0.0 | 0.0 | 0.00 | 0.00 | 0.00 | 81 | 1013.8 |
| 20260506110804 | 63 | 216 | 0.0 | 0.0 | 0.00 | 0.00 | 0.00 | 82 | 1013.7 |
| 20260506110303 | 63 | 216 | 0.0 | 2.0 | 0.00 | 0.00 | 0.00 | 82 | 1013.7 |
| 20260506104804 | 63 | 216 | 0.0 | 1.0 | 0.00 | 0.00 | 0.00 | 79 | 1013.2 |
| 20260506104303 | 63 | 216 | 0.0 | 1.0 | 0.00 | 0.00 | 0.00 | 79 | 1013.3 |
| 20260506103804 | 63 | 216 | 0.0 | 0.0 | 0.00 | 0.00 | 0.00 | 79 | 1013.3 |
| 20260506103304 | 63 | 216 | 0.0 | 1.0 | 0.00 | 0.00 | 0.00 | 79 | 1013.2 |
| 20260506101803 | 63 | 216 | 1.0 | 1.0 | 0.00 | 0.00 | 0.00 | 77 | 1012.8 |
| 20260506101304 | 63 | 216 | 1.0 | 1.0 | 0.00 | 0.00 | 0.00 | 77 | 1012.8 |
| 20260506100804 | 63 | 216 | 0.0 | 0.0 | 0.00 | 0.00 | 0.00 | 78 | 1012.7 |
| 20260506094804 | 64 | 216 | 0.0 | 1.0 | 0.00 | 0.00 | 0.00 | 77 | 1012.5 |
| 20260506093803 | 64 | 216 | 0.0 | 2.0 | 0.00 | 0.00 | 0.00 | 79 | 1012.5 |
| 20260506093304 | 64 | 216 | 0.0 | 1.0 | 0.00 | 0.00 | 0.00 | 78 | 1012.9 |
| 20260506091304 | 65 | 216 | 1.0 | 1.0 | 0.00 | 0.00 | 0.00 | 76 | 1012.5 |
| 20260506090304 | 65 | 216 | 0.0 | 2.0 | 0.00 | 0.00 | 0.00 | 76 | 1012.7 |
| 20260506084804 | 65 | 216 | 0.0 | 1.0 | 0.00 | 0.00 | 0.00 | 75 | 1012.6 |
| 20260506083804 | 66 | 216 | 0.0 | 2.0 | 0.00 | 0.00 | 0.00 | 73 | 1012.7 |
| 20260506083304 | 66 | 216 | 0.0 | 2.0 | 0.00 | 0.00 | 0.00 | 73 | 1012.7 |
| 20260506081804 | 65 | 216 | 1.0 | 1.0 | 0.00 | 0.00 | 0.00 | 73 | 1012.8 |
| 20260506081304 | 65 | 216 | 1.0 | 1.0 | 0.00 | 0.00 | 0.00 | 73 | 1012.8 |
| 20260506080804 | 65 | 216 | 0.0 | 2.0 | 0.00 | 0.00 | 0.00 | 73 | 1012.9 |
| 20260506080304 | 65 | 216 | 1.0 | 2.0 | 0.00 | 0.00 | 0.00 | 72 | 1012.9 |
| 20260506073304 | 65 | 216 | 0.0 | 1.0 | 0.00 | 0.00 | 0.00 | 71 | 1013.1 |
| 20260506071304 | 63 | 216 | 0.0 | 1.0 | 0.00 | 0.00 | 0.00 | 75 | 1013.1 |
| 20260506070304 | 63 | 216 | 0.0 | 0.0 | 0.00 | 0.00 | 0.00 | 77 | 1013.2 |
| 20260506061304 | 61 | 216 | 0.0 | 0.0 | 0.00 | 0.00 | 0.00 | 79 | 1013.5 |
| 20260506060807 | 61 | 216 | 0.0 | 0.0 | 0.00 | 0.00 | 0.00 | 80 | 1013.4 |
| 20260506060304 | 61 | 216 | 0.0 | 0.0 | 0.00 | 0.00 | 0.00 | 80 | 1013.4 |
| 20260506051304 | 60 | 216 | 0.0 | 0.0 | 0.00 | 0.00 | 0.00 | 79 | 1013.4 |
| 20260506050304 | 61 | 216 | 0.0 | 0.0 | 0.00 | 0.00 | 0.00 | 79 | 1013.4 |
| 20260506044805 | 61 | 216 | 0.0 | 0.0 | 0.00 | 0.00 | 0.00 | 79 | 1013.7 |
| 20260506044304 | 61 | 216 | 0.0 | 0.0 | 0.00 | 0.00 | 0.00 | 79 | 1013.6 |
| 20260506043804 | 61 | 216 | 0.0 | 0.0 | 0.00 | 0.00 | 0.00 | 80 | 1013.5 |
| 20260506043305 | 61 | 216 | 0.0 | 0.0 | 0.00 | 0.00 | 0.00 | 80 | 1013.7 |
| 20260506041804 | 62 | 216 | 0.0 | 0.0 | 0.00 | 0.00 | 0.00 | 78 | 1013.5 |
| 20260506041304 | 62 | 216 | 0.0 | 0.0 | 0.00 | 0.00 | 0.00 | 78 | 1013.6 |
| 20260506040822 | 62 | 216 | 0.0 | 0.0 | 0.00 | 0.00 | 0.00 | 76 | 1013.8 |
| 20260506040305 | 62 | 216 | 0.0 | 0.0 | 0.00 | 0.00 | 0.00 | 78 | 1013.7 |
| 20260506034803 | 62 | 216 | 0.0 | 0.0 | 0.00 | 0.00 | 0.00 | 75 | 1014.0 |
| 20260506034303 | 62 | 216 | 0.0 | 0.0 | 0.00 | 0.00 | 0.00 | 74 | 1013.9 |
| 20260506033804 | 62 | 216 | 0.0 | 0.0 | 0.00 | 0.00 | 0.00 | 74 | 1013.8 |
| 20260506033303 | 63 | 216 | 0.0 | 0.0 | 0.00 | 0.00 | 0.00 | 74 | 1013.8 |
| 20260506031803 | 63 | 216 | 0.0 | 0.0 | 0.00 | 0.00 | 0.00 | 75 | 1013.8 |
| 20260506031303 | 63 | 216 | 0.0 | 0.0 | 0.00 | 0.00 | 0.00 | 74 | 1013.9 |
| 20260506030303 | 63 | 216 | 0.0 | 0.0 | 0.00 | 0.00 | 0.00 | 74 | 1013.9 |
| 20260506024802 | 63 | 216 | 0.0 | 0.0 | 0.00 | 0.00 | 0.00 | 74 | 1014.0 |
| 20260506024303 | 63 | 216 | 0.0 | 0.0 | 0.00 | 0.00 | 0.00 | 74 | 1013.9 |
| 20260506023803 | 63 | 216 | 0.0 | 0.0 | 0.00 | 0.00 | 0.00 | 73 | 1013.9 |
| 20260506023303 | 63 | 216 | 0.0 | 0.0 | 0.00 | 0.00 | 0.00 | 73 | 1013.8 |
| 20260506021303 | 63 | 216 | 0.0 | 0.0 | 0.00 | 0.00 | 0.00 | 70 | 1013.6 |
| 20260506020803 | 63 | 216 | 0.0 | 0.0 | 0.00 | 0.00 | 0.00 | 70 | 1013.7 |
| 20260506020303 | 63 | 216 | 0.0 | 0.0 | 0.00 | 0.00 | 0.00 | 69 | 1013.8 |
| 20260506014803 | 64 | 216 | 0.0 | 0.0 | 0.00 | 0.00 | 0.00 | 66 | 1013.6 |
| 20260506014303 | 65 | 216 | 0.0 | 0.0 | 0.00 | 0.00 | 0.00 | 66 | 1013.5 |
| 20260506013804 | 65 | 216 | 0.0 | 0.0 | 0.00 | 0.00 | 0.00 | 65 | 1013.5 |
| 20260506013303 | 65 | 216 | 0.0 | 0.0 | 0.00 | 0.00 | 0.00 | 64 | 1013.4 |
| 20260506011803 | 67 | 216 | 0.0 | 0.0 | 0.00 | 0.00 | 0.00 | 63 | 1013.2 |
| 20260506010803 | 67 | 216 | 0.0 | 0.0 | 0.00 | 0.00 | 0.00 | 61 | 1013.3 |
| 20260506010303 | 68 | 216 | 0.0 | 0.0 | 0.00 | 0.00 | 0.00 | 61 | 1013.2 |
| 20260506004803 | 69 | 216 | 0.0 | 0.0 | 0.00 | 0.00 | 0.00 | 56 | 1013.5 |
| 20260506004303 | 70 | 216 | 0.0 | 0.0 | 0.00 | 0.00 | 0.00 | 55 | 1013.4 |